This demonstration page uses our WeatherBlox Daily Observations layout. Learn more.

Left ArrowRight Arrow

Hourly Observations for May 19, 2020

Temp ( °F °C ) Dew Point ( °F °C ) Humidity (%) Winds ( mph kmh ) Pressure ( in mb ) Visibility ( mi km ) Precip ( " mm )
12:54 am 00:54 Cloudy 57 13.9 49 9.4 74 74 NNE 7 11 30 1016 10 16.0934 0 0
1:54 am 01:54 Cloudy 56 13.3 49 9.4 77 77 N 8 13 29.99 1016 10 16.0934 0 0
2:54 am 02:54 Cloudy 56 13.3 49 9.4 77 77 N 6 9 29.98 1015 10 16.0934 0 0
3:54 am 03:54 Cloudy 56 13.3 50 10 81 81 N 6 9 29.98 1015 10 16.0934 0 0
4:54 am 04:54 Cloudy 55 12.8 50 10 83 83 NNE 6 9 29.98 1015 10 16.0934 0 0
5:54 am 05:54 Cloudy 55 12.8 50 10 83 83 NNE 8 13 30 1016 10 16.0934 0 0
6:54 am 06:54 Cloudy 55 12.8 50 10 83 83 NE 6 9 30.01 1016 10 16.0934 0 0
7:54 am 07:54 Cloudy 56 13.3 50 10 81 81 NNE 9 15 30.02 1017 10 16.0934 0 0
8:54 am 08:54 Cloudy 58 14.4 50 10 75 75 NE 7 11 30.02 1017 10 16.0934 0 0
9:50 am 09:50 Cloudy 59 15 50 10 72 72 NNE 8 13 30.02 1017 10 16.0934 0 0
9:54 am 09:54 Cloudy 59 15 50 10 72 72 NE 7 11 30.02 1017 10 16.0934 0 0
10:18 am 10:18 Cloudy 59 15 50 10 72 72 NE 8 13 30.02 1017 10 16.0934 0 0
10:54 am 10:54 Cloudy 59 15 50 10 72 72 NNE 7 11 30.03 1017 10 16.0934 0 0
11:27 am 11:27 Cloudy 60 15.6 50 10 70 70 ENE 8 13 30.02 1016 10 16.0934 0 0
11:40 am 11:40 Cloudy 60 15.6 50 10 70 70 NE 8 13 30.02 1016 10 16.0934 0 0
11:50 am 11:50 Cloudy 61 16 52 11 72 72 VRB 7 11 30.01 1016 10 16.0934 0 0
11:54 am 11:54 Cloudy 61 16.1 51 10.6 70 70 ENE 9 15 30.02 1017 10 16.0934 0 0
12:54 pm 12:54 Cloudy 61 16.1 50 10 67 67 NE 3 6 30.02 1017 10 16.0934 0 0
1:54 pm 13:54 Cloudy 63 17.2 51 10.6 65 65 undefined N/A 30 1016 10 16.0934 0 0
2:54 pm 14:54 Mostly Cloudy 66 18.9 52 11.1 61 61 VRB 6 9 29.98 1015 10 16.0934 0 0
3:54 pm 15:54 Mostly Cloudy 68 20 52 11.1 57 57 E 9 15 29.96 1015 10 16.0934 0 0
4:05 pm 16:05 Partly Cloudy 67 19.4 52 11.1 59 59 E 7 11 29.95 1014 10 16.0934 0 0
4:54 pm 16:54 Mostly Sunny 67 19.4 52 11.1 59 59 E 7 11 29.96 1015 10 16.0934 0 0
5:54 pm 17:54 Sunny 69 20.6 53 11.7 57 57 ENE 10 17 29.95 1014 10 16.0934 0 0
6:54 pm 18:54 Sunny 67 19.4 52 11.1 59 59 ENE 12 19 29.95 1014 10 16.0934 0 0
7:54 pm 19:54 Sunny 65 18.3 51 10.6 61 61 ENE 12 19 29.96 1014 10 16.0934 0 0
8:54 pm 20:54 Clear 61 16.1 51 10.6 70 70 E 10 17 29.98 1015 10 16.0934 0 0
9:54 pm 21:54 Mostly Clear 58 14.4 51 10.6 78 78 ENE 9 15 30 1016 10 16.0934 0 0
10:54 pm 22:54 Clear 57 13.9 51 10.6 81 81 E 7 11 30.01 1016 10 16.0934 0 0
11:20 pm 23:20 Mostly Cloudy 58 14.4 51 10.6 78 78 E 6 9 30 1016 10 16.0934 0 0
11:54 pm 23:54 Partly Cloudy 57 13.9 51 10.6 81 81 E 7 11 30.01 1016 10 16.0934 0 0

Powered by AerisWeather